This demonstration page uses our WeatherBlox Daily Observations layout. Learn more.

Left ArrowRight Arrow

Hourly Observations for May 7, 2018

Temp ( °F °C ) Dew Point ( °F °C ) Humidity (%) Winds ( mph kmh ) Pressure ( in mb ) Visibility ( mi km ) Precip ( " mm )
12:51 am 00:51 Clear 75 23.9 20 -6.7 12 12 E 5 7 29.85 1011 10 16 0.00 0.00
1:51 am 01:51 Clear 69 20.6 20 -6.7 15 15 VRB 5 7 29.87 1011 10 16 0.00 0.00
2:51 am 02:51 Clear 66 18.9 20 -6.7 17 17 NW 7 11 29.88 1012 10 16 0.00 0.00
3:51 am 03:51 Clear 64 17.8 20 -6.7 18 18 Calm 29.90 1013 10 16 0.00 0.00
4:51 am 04:51 Clear 63 17.2 20 -6.7 19 19 N 6 9 29.91 1013 10 16 0.00 0.00
5:51 am 05:51 Sunny 63 17.2 20 -6.7 19 19 Calm 29.93 1014 10 16 0.00 0.00
6:51 am 06:51 Sunny 69 20.6 22 -5.6 17 17 SSW 7 11 29.95 1014 10 16 0.00 0.00
7:51 am 07:51 Sunny 77 25 23 -5 13 13 SSE 6 9 29.96 1015 10 16 0.00 0.00
8:51 am 08:51 Sunny 83 28.3 21 -6.1 10 10 ESE 8 13 29.95 1014 10 16 0.00 0.00
9:51 am 09:51 Sunny 86 30 21 -6.1 9 9 SE 6 9 29.95 1014 10 16 0.00 0.00
10:51 am 10:51 Sunny 89 31.7 21 -6.1 8 8 undefined N/A 29.93 1014 10 16 0.00 0.00
11:51 am 11:51 Sunny 92 33.3 20 -6.7 7 7 S 5 7 29.90 1012 10 16 0.00 0.00
12:51 pm 12:51 Sunny 95 35 20 -6.7 6 6 VRB 5 7 29.87 1012 10 16 0.00 0.00
1:51 pm 13:51 Sunny 99 37.2 23 -5 6 6 VRB 5 7 29.85 1011 10 16 0.00 0.00
2:51 pm 14:51 Sunny 96 35.6 25 -3.9 8 8 Calm 29.83 1010 10 16 0.00 0.00
3:51 pm 15:51 Sunny 96 35.6 24 -4.4 7 7 WNW 12 19 29.81 1010 10 16 0.00 0.00
4:51 pm 16:51 Sunny 98 36.7 24 -4.4 7 7 NW 18 30 29.79 1009 10 16 0.00 0.00
5:51 pm 17:51 Sunny 95 35 24 -4.4 8 8 NW 12 19 29.78 1009 10 16 0.00 0.00
6:51 pm 18:51 Sunny 90 32.2 25 -3.9 9 9 NW 8 13 29.78 1009 10 16 0.00 0.00
7:51 pm 19:51 Clear 87 30.6 26 -3.3 11 11 WNW 10 17 29.79 1009 10 16 0.00 0.00
8:51 pm 20:51 Clear 85 29.4 27 -2.8 12 12 NW 12 19 29.80 1009 10 16 0.00 0.00
9:51 pm 21:51 Clear 79 26.1 29 -1.7 16 16 WNW 10 17 29.82 1010 10 16 0.00 0.00
10:51 pm 22:51 Clear 77 25 27 -2.8 16 16 NNW 10 17 29.82 1010 10 16 0.00 0.00
11:51 pm 23:51 Clear 74 23.3 26 -3.3 17 17 NNW 7 11 29.82 1010 10 16 0.00 0.00

Powered by AerisWeather